TimeEDT,TemperatureF,Dew PointF,Humidity,Sea Level PressureIn,VisibilityMPH,Wind Direction,Wind SpeedMPH,Gust SpeedMPH,PrecipitationIn,Events,Conditions,WindDirDegrees,DateUTC
12:53 AM,59.0,50.0,72,29.73,10.0,Calm,Calm,-,0.00,Rain,Light Rain,0,2013-05-15 04:53:00
1:53 AM,57.9,51.1,78,29.72,10.0,Calm,Calm,-,0.00,,Overcast,0,2013-05-15 05:53:00
2:53 AM,59.0,52.0,78,29.68,10.0,ENE,4.6,-,N/A,,Overcast,70,2013-05-15 06:53:00
3:53 AM,61.0,54.0,78,29.64,10.0,Calm,Calm,-,N/A,,Overcast,0,2013-05-15 07:53:00
4:53 AM,61.0,55.0,81,29.62,10.0,Calm,Calm,-,N/A,,Mostly Cloudy,0,2013-05-15 08:53:00
5:53 AM,59.0,55.0,87,29.60,9.0,South,6.9,-,N/A,,Mostly Cloudy,190,2013-05-15 09:53:00
6:53 AM,69.1,57.0,65,29.60,10.0,SSW,12.7,-,N/A,,Mostly Cloudy,210,2013-05-15 10:53:00
7:53 AM,73.0,57.0,57,29.61,10.0,SW,16.1,24.2,N/A,,Mostly Cloudy,220,2013-05-15 11:53:00
8:53 AM,77.0,55.9,48,29.62,10.0,WSW,19.6,25.3,N/A,,Mostly Cloudy,250,2013-05-15 12:53:00
9:53 AM,80.1,52.0,38,29.64,10.0,West,16.1,27.6,N/A,,Scattered Clouds,270,2013-05-15 13:53:00
10:53 AM,80.1,48.0,32,29.65,10.0,West,19.6,28.8,N/A,,Scattered Clouds,270,2013-05-15 14:53:00
11:53 AM,81.0,46.9,30,29.68,10.0,West,20.7,28.8,N/A,,Scattered Clouds,270,2013-05-15 15:53:00
12:53 PM,82.9,46.9,28,29.70,10.0,West,23.0,31.1,N/A,,Partly Cloudy,280,2013-05-15 16:53:00
1:53 PM,82.9,46.9,28,29.72,10.0,West,21.9,28.8,N/A,,Scattered Clouds,270,2013-05-15 17:53:00
2:53 PM,82.9,45.0,26,29.72,10.0,WNW,19.6,29.9,N/A,,Scattered Clouds,290,2013-05-15 18:53:00
3:53 PM,84.0,46.0,26,29.72,10.0,WNW,16.1,26.5,N/A,,Scattered Clouds,290,2013-05-15 19:53:00
4:53 PM,82.9,45.0,26,29.72,10.0,West,16.1,26.5,N/A,,Scattered Clouds,260,2013-05-15 20:53:00
5:53 PM,82.0,45.0,27,29.73,10.0,WNW,11.5,20.7,N/A,,Scattered Clouds,290,2013-05-15 21:53:00
6:53 PM,81.0,44.1,27,29.73,10.0,West,13.8,20.7,N/A,,Scattered Clouds,260,2013-05-15 22:53:00
7:53 PM,78.1,42.1,28,29.74,10.0,WSW,11.5,-,N/A,,Mostly Cloudy,250,2013-05-15 23:53:00
8:53 PM,73.9,42.1,32,29.76,10.0,WNW,8.1,-,N/A,,Mostly Cloudy,290,2013-05-16 00:53:00
9:53 PM,72.0,41.0,33,29.78,10.0,West,5.8,-,N/A,,Mostly Cloudy,260,2013-05-16 01:53:00
10:53 PM,70.0,42.1,36,29.78,10.0,West,5.8,-,N/A,,Mostly Cloudy,280,2013-05-16 02:53:00
11:53 PM,70.0,42.1,36,29.78,10.0,WNW,10.4,-,N/A,,Mostly Cloudy,290,2013-05-16 03:53:00